Regional Weather Roundup
Issued by NWS

Home | Current Version | Previous Version | Text Only | Print | Product List | Glossary On
Versions: 1 2 3 4 5 6 7 8 9 10 11 12 13 14 15 16 17 18 19 20 21 22 23 24 25 26 27 28 29 30 31 32 33 34 35 36 37 38 39 40 41 42 43 44 45 46 47 48 49 50
000
ASUS43 KIND 140609
RWRIN

WEATHER ROUNDUP FOR INDIANA
NATIONAL WEATHER SERVICE INDIANAPOLIS IN
200 AM EDT MON JUL 14 2014

NOTE: "FAIR" INDICATES FEW OR NO CLOUDS BELOW 12,000 FEET WITH NO
SIGNIFICANT WEATHER AND/OR OBSTRUCTIONS TO VISIBILITY.

* - STATION DOES NOT REPORT WEATHER SUCH AS PRECIPITATION OR FOG.

+ - STATION NOT QUALITY CONTROLLED BY THE NATIONAL WEATHER SERVICE.
    USE DATA WITH CAUTION...ESPECIALLY DEWPOINT AND RELATIVE
    HUMIDITY OBSERVATIONS.

INZ001>003-010>013-019-020-140700-
NORTHWEST INDIANA

CITY           SKY/WX    TMP DP  RH WIND       PRES   REMARKS
GARY /AIRPORT/ MOCLDY    73  65  75 W6        29.90F
KNOX *+        CLOUDY    70  66  88 W5        29.89S
LA PORTE +     PTCLDY    70  65  84 W6        29.91S
6HR MIN TEMP:  70; 6HR MAX TEMP:  79;

MICHIGAN CITY+ PTCLDY    72  61  68 W6        29.89F
MONTICELLO +   PTCLDY    68  65  90 CALM      29.90F
RENSSELAER +   CLOUDY    70  70 100 SW3       29.91S
VALPARAISO     PTCLDY    70  66  87 W8        29.91R
6HR MIN TEMP:  70; 6HR MAX TEMP:  80;


$$

LMZ046-743>745-140700-
SOUTHERN LAKE MICHIGAN

STATION/POSITION TIME  TEMP WIND        PRES
                       AIR  DIR/SP/G
                 (UTC) (F)  (DEG/KT/KT) (MB)
MICHIGAN CITY    0600   73  230/ 14/ 16   N/A

$$

INZ004-005-014>016-021>024-140700-
NORTH CENTRAL INDIANA

CITY           SKY/WX    TMP DP  RH WIND       PRES   REMARKS
GOSHEN         MOCLDY    71  67  87 SW8       29.89S
6HR MIN TEMP:  70; 6HR MAX TEMP:  79;

LOGANSPORT +   PTCLDY    63  61  94 CALM      29.91F
PERU/GRISSOM   PTCLDY    68  68 100 W6        29.90F
6HR MIN TEMP:  65; 6HR MAX TEMP:  80;

ROCHESTER +    MOCLDY    73  66  78 SW5       29.90F
SOUTH BEND     MOCLDY    72  65  78 SW6       29.89S
6HR MIN TEMP:  72; 6HR MAX TEMP:  80; 6HR PCP: TRACE;

WARSAW +       CLOUDY    72  66  83 W6        29.89F

$$

INZ006>009-017-018-025>027-140700-
NORTHEAST INDIANA

CITY           SKY/WX    TMP DP  RH WIND       PRES   REMARKS
ANGOLA *+      CLOUDY    68  59  73 SW3       29.89S
AUBURN +       MOCLDY    70  63  78 SW3       29.90F
FORT WAYNE     MOCLDY    67  64  90 SW5       29.91F
6HR MIN TEMP:  67; 6HR MAX TEMP:  82;

HUNTINGTON +   PTCLDY    67  66  94 CALM      29.90F
6HR MIN TEMP:  66; 6HR MAX TEMP:  79;


$$

INZ028-029-035-036-043>045-051>053-140700-
WEST CENTRAL INDIANA

CITY           SKY/WX    TMP DP  RH WIND       PRES   REMARKS
GREENCASTLE +  CLOUDY    70  70 100 CALM      29.92S
LAFAYETTE      PTCLDY    66  65  96 CALM      29.90F
6HR MIN TEMP:  65; 6HR MAX TEMP:  76;

TERRE HAUTE    CLOUDY    73  70  90 CALM      29.90F
6HR MIN TEMP:  73; 6HR MAX TEMP:  83;


$$

INZ030>032-037>040-046>048-054>057-064-065-140700-
CENTRAL INDIANA

CITY           SKY/WX    TMP DP  RH WIND       PRES   REMARKS
CP ATTERBURY + FOG       72  70  94 CALM      29.92S VSB<1/4
GREENWOOD *+   MOCLDY    73  73 100 CALM      29.92F
INDIANAPOLIS   MOCLDY    72  69  90 NW5       29.90F
6HR MIN TEMP:  71; 6HR MAX TEMP:  81;

-EAGLE CREEK   MOCLDY    72  68  87 W3        29.91S
6HR MIN TEMP:  72; 6HR MAX TEMP:  81;

KOKOMO *+      MOCLDY    66  63  88 CALM      29.91F
MARION +       MOCLDY    64  63  96 CALM      29.92F
MT COMFORT *+  MOCLDY    70 N/A N/A CALM      29.92S
SHELBYVILLE    FOG       74  71  91 S3        29.91F VSB 1
6HR MIN TEMP:  73; 6HR MAX TEMP:  84;

ZIONSVILLE +   MOCLDY    69  65  89 CALM      29.93S
6HR MIN TEMP:  68; 6HR MAX TEMP:  81;


$$

INZ033-034-041-042-049-050-058-059-140700-
EAST CENTRAL INDIANA

CITY           SKY/WX    TMP DP  RH WIND       PRES   REMARKS
MUNCIE         MOCLDY    68  64  87 CALM      29.92S
6HR MIN TEMP:  68; 6HR MAX TEMP:  81;


$$

INZ060-061-067>069-081>083-085>088-140700-
SOUTHWEST INDIANA

CITY           SKY/WX    TMP DP  RH WIND       PRES   REMARKS
EVANSVILLE     CLOUDY    75  69  81 W16G23    29.95R
6HR MIN TEMP:  73; 6HR MAX TEMP:  90; 6HR PCP:  0.57;

HUNTINGBURG *+ CLOUDY    73  68  83 SW3       29.93S
6HR MIN TEMP:  73; 6HR MAX TEMP:  88; 6HR PCP:  0.03;

WASHINGTON +   TSTM      73  73  98 W14G21    29.92R
6HR MIN TEMP:  73; 6HR MAX TEMP:  78; 6HR PCP:  0.60;


$$

INZ062-063-066-070>080-084-089>092-140700-
SOUTH CENTRAL AND SOUTHEAST INDIANA

CITY           SKY/WX    TMP DP  RH WIND       PRES   REMARKS
BLOOMINGTON    CLOUDY    71  69  93 CALM      29.91F
6HR MIN TEMP:  70; 6HR MAX TEMP:  79; 6HR PCP:  0.04;

SEYMOUR +      CLOUDY    68  61  77 SE5       29.91

$$



USA.gov is the U.S. government's official web portal to all federal, state and local government web resources and services.